Погода в Хутаге

Монголия     49°25′26″N   102°35′52″E
темп.,
°C
ветер,
м/с
пор.,
м/с
влажн.,
%
обл.,
%
осадки,
мм/ч
давл.,
гПа
погр.,
м
25 февраля, чт
чт2523:00−9ссв11590 0.0 102321
02:00−10всв01616 0.0 102321
05:00−10з0159100 0.0 102121
08:00−10в016167 0.0 102221
11:00−8всв114844 0.0 1020108
14:00−4всв223859 0.0 1014216
17:00−4св2253100 0.0 1010109
20:00−6св1166100 0.0 101021
26 февраля, пт
пт2623:00−6с2262100 0.1 100826
02:00−6с1262100 0.1 100726
05:00−5юз1256100 0.1 100721
08:00−5зюз0153100 0.1 100821
11:00−3ссз3451100 0.0 1010198
14:000зсз61022100 0.1 10082186
17:00−1з81414100 0.0 10092483
20:00−5з91521100 0.1 10131343
27 февраля, сб
сб2723:00−9з8112633 0.0 1020945
02:00−13сз7132417 0.0 10261045
05:00−15с38320 0.0 1030594
08:00−18ссв11500 0.0 103353
11:00−15ссз34259 0.0 1033926
14:00−14св23264 0.0 10311029
17:00−13в122684 0.0 1030757
20:00−15ссв224865 0.0 1032100
28 февраля, вс
вс2823:00−16ссв225116 0.0 103563
02:00−17ссв225254 0.0 103554
05:00−19ссв12553 0.0 103727
08:00−19ссв11572 0.0 103924
11:00−16св11410 0.0 1038264
14:00−12ююз25260 0.0 10361537
17:00−10з582199 0.0 10352282
20:00−13сз343165 0.0 1038114
1 марта, пн
пн123:00−14зсз22330 0.0 103922
02:00−15з11360 0.0 103920
05:00−16з11380 0.0 103920
08:00−17сз11450 0.0 103920
11:00−13юз13330 0.0 1036462
14:00−9з34230 0.0 1031975
17:00−8зюз24210 0.0 1028950
20:00−11юв112810 0.0 102821